Tracking 27405 objects as of 2-Jun-2023
HD Live streaming from Space Station
objects crossing your sky now

INMARSAT 2-F3

Track INMARSAT 2-F3 now!
INMARSAT 2-F3 is classified as:


NORAD ID: 21814
Int'l Code: 1991-084B
Perigee: 36,931.6 km
Apogee: 37,101.6 km
Inclination: 13.2 °
Period: 1,499.0 minutes
Semi major axis: 43387 km
RCS: 12.5892 m2 (large)
Launch date: December 16, 1991
Source: International Mobile Satellite Organization (INMARSAT) (IM)
Launch site: FRENCH GUIANA (FRGUI)

Broadcasting, business services, mobile communications; demand-assigned L-band transponders; spare satellite co-located with Inmarsat 3s.
Your satellite tracking list
Your tracking list is empty




NASA's NSSDC Master Catalog

Two Line Element Set (TLE):
1 21814U 91084B   23151.87563578 -.00000135  00000-0  00000+0 0  9998
2 21814  13.2007  20.0884 0019589  61.3065 126.1148  0.96062751112559
Source of the keplerian elements: AFSPC